Regional Weather Roundup
Issued by NWS Upton, NY

Current Version | Previous Version | Text Only | Print | Product List | Glossary On
Versions: 1 2 3 4 5 6 7 8 9 10 11 12 13 14 15 16 17 18 19 20 21 22 23 24 25 26 27
000
ASUS41 KOKX 231907
RWROKX

REGIONAL WEATHER ROUNDUP
NATIONAL WEATHER SERVICE NEW YORK NY
300 PM EDT THU MAR 23 2017

NOTE: "FAIR" INDICATES FEW OR NO CLOUDS BELOW 12,000 FEET WITH NO
SIGNIFICANT WEATHER AND/OR OBSTRUCTIONS TO VISIBILITY.

NYZ071-072-176-178-NJZ106-104-232000-
NEW YORK CITY METRO AREA

CITY           SKY/WX    TMP DP  RH WIND       PRES   REMARKS
Central Park   SUNNY     40   0  18 VRB7      30.55F
Wall St Helipt CLEAR     45   3  18 VRB5      30.54F
LaGuardia APRT MOSUNNY   41   3  20 NW15      30.53F
Kennedy INTL   MOSUNNY   41   0  18 W9G18     30.54F
Breezy Point     N/A     39 N/A N/A NW9G15      N/A  WCI  33
Newark/Liberty MOSUNNY   42  -1  16 CALM      30.54F
Teterboro      SUNNY     40   4  22 NW13G22   30.53F WCI  32
$$

NYZ177-179-078>081-232000-
LONG ISLAND NEW YORK

CITY           SKY/WX    TMP DP  RH WIND       PRES   REMARKS
Jones Beach      N/A     37 N/A N/A NW12G22     N/A  WCI  30
Matinecock PT    N/A     37 N/A N/A NW15        N/A  WCI  28
Farmingdale    SUNNY     39   0  19 NW14G24   30.53F WCI  31
MacArthur/ISP  SUNNY     38   1  21 NW14G25   30.52F WCI  30
Shirley        SUNNY     37  -2  19 NW16G24   30.52F WCI  28
Westhampton    SUNNY     38  -5  16 NW20G25   30.52F WCI  28
East Hampton     N/A     37  -1  20 W15G23    30.49F WCI  28
Montauk          N/A     37   5  26 W9        30.49F WCI  30
$$

NYZ052-065-067-232000-
HUDSON VALLEY

CITY           SKY/WX    TMP DP  RH WIND       PRES   REMARKS
White Plains   SUNNY     37  -1  20 NW8G18    30.51F WCI  31
Newburgh       SUNNY     37   0  20 W16G25    30.50F WCI  28
Montgomery     SUNNY     39  -2  17 N10G20    30.49F WCI  32
Poughkeepsie   SUNNY     35   1  23 VRB6      30.50F WCI  30
Albany         MOSUNNY   35   4  27 W18       30.51F WCI  24
$$

NJZ001-105-106-008-010-013-015-019>022-104-232000-
NEW JERSEY

CITY           SKY/WX    TMP DP  RH WIND       PRES   REMARKS
Newark/Liberty MOSUNNY   42  -1  16 CALM      30.54F
Teterboro      SUNNY     40   4  22 NW13G22   30.53F WCI  32
Caldwell       SUNNY     39   1  20 MISG      30.54F
Somerville     SUNNY     41   2  19 W8        30.52F
Linden           N/A     42   4  20 N10G21    30.55F
Sussex         SUNNY     38  -2  18 VRB6      30.51F WCI  33
Andover          N/A     39   1  20 CALM      30.51F
Trenton        SUNNY     41   8  25 NW9       30.54F
Millville      SUNNY     41  13  31 W16       30.56F
Atlantic City  SUNNY     45   2  17 N10       30.56F
Wrightstown    SUNNY     42   7  24 W12       30.53F
Toms River     SUNNY     43   4  19 W10G16    30.56F
Belmar         SUNNY     41   0  18 W10G17    30.55F
$$

PAZ047>061-062-071-232000-
EASTERN PENNSYLVANIA

CITY           SKY/WX    TMP DP  RH WIND       PRES   REMARKS
Philadelphia   MOSUNNY   42   6  22 S12       30.57F
Allentown      SUNNY     42   6  22 W12G20    30.53F
Scranton       SUNNY     33   7  33 SW6       30.52F WCI  28
$$

CTZ002-004>006-009-010-012-RIZ004-006-007-MAZ004-011-015-232000-
SOUTHERN NEW ENGLAND
 IN CT

CITY           SKY/WX    TMP DP  RH WIND       PRES   REMARKS
Bradley INTL   SUNNY     37   0  21 NW13G21   30.47F WCI  29
Hartford       SUNNY     36   1  22 NW12G22   30.49F WCI  28
Danbury        SUNNY     35  -2  20 W13G20    30.51F WCI  26
Wtrbury/Oxford SUNNY     34   0  23 NW9G18    30.48F WCI  26
Bridgeport     SUNNY     42  -1  16 NW17      30.51F
Meriden        SUNNY     38  -1  19 NW15G28   30.49F WCI  29
New Haven      SUNNY     38   0  20 NW14      30.51F WCI  30
Chester          N/A     36  -6  17 NW10G18   30.46F WCI  28
Groton         SUNNY     39  -3  17 NW14G22   30.46F WCI  31
Wilimantic     SUNNY     38  -1  19 W9G20     30.46F WCI  31

 IN RI

CITY           SKY/WX    TMP DP  RH WIND       PRES   REMARKS
Providence     MOSUNNY   38  -3  17 W17G23    30.44F WCI  28
Block Island   SUNNY     36  11  35 W15G21    30.47F WCI  27
Westerly       SUNNY     38  -4  16 NW13G22   30.47F WCI  30
 IN MA

CITY           SKY/WX    TMP DP  RH WIND       PRES   REMARKS
Boston         SUNNY     36   1  22 W16       30.42F WCI  26
Worcester      SUNNY     32  -4  21 NW16G26   30.38F WCI  21
Westfield      SUNNY     35   3  26 W20G25    30.46S WCI  24
Provincetown   SUNNY     34   7  32 NW16G23   30.42F WCI  24
Nantucket      SUNNY     34   0  23 W20G26    30.43S WCI  23
$$

ANZ330-335-338-340-345-350-353-355-232000-
COASTAL MARINE OBSERVATIONS


STATION/POSITION TIME  SKY/WX   TEMP    WIND        PRES    VSBY  WAVE
                                AIR SEA DIR/SP/G                  HT/PER
                 (UTC)          (F)     (DEG/KT/KT) (MB)    (MI)  (FT/S)
NY HARB ENTRANCE 1750            33 41  280/ 12/ 16 1035.3          1/ 3
20 S FIRE ISLAND 1850            32 41  300/ 12/ 16 1034.3          2/ 4
GREAT SOUTH BAY  NOT AVBL
23 SSW MONTAUK P 1750            30 42              1034.2          2/ 4
15 E BARNEGAT LI 1830               44                N/A           2/12
HUDSON CANYON    1750            32 45  330/ 14/ 17 1035.3          5/ 6
KINGS POINT      1842            36 38              1034.0
EXECUTION ROCKS  NOT AVBL
CENTRAL LI SOUND 1815            34     290/ 16/ 21   N/A           2/ 2
EASTERN LI SOUND NOT AVBL
ROBBINS REEF     1842            36     310/ 14/ 18 1034.3
$$


>>>>>>>>>>>>>>>>>>>>>>>>>>>> KEY <<<<<<<<<<<<<<<<<<<<<<<<<<<
>                                                          <
>     SKY/WX - Sky Condition/Present Weather               <
>     TMP    - Temperature in Fahrenheit                   <
>     DP     - Dew Point in Fahrenheit                     <
>     RH     - Relative Humidity in Percent                <
>     WIND   - Direction (from) and Speed in MPH           <
>     PRES   - Mean Sea Level Pressure (inches of Hg)      <
>     WCI    - Wind Chill Index                            <
>     VSB    - VISIBILITY IN MILES                         <
>     HX     - HEAT INDEX                                  <
>     TC     - TEMPERATURE IN CELSIUS                      <
>     VRB    - VARIABLE WIND DIRECTION                     <
>                                                          <
>>>>>>>>>>>>>>>>>>>>>>>>>>>> KEY <<<<<<<<<<<<<<<<<<<<<<<<<<<




USA.gov is the U.S. government's official web portal to all federal, state and local government web resources and services.